Regional Weather Roundup
Issued by NWS

Home | Current Version | Previous Version | Text Only | Print | Product List | Glossary Off
Versions: 1 2 3 4 5 6 7 8 9 10 11 12 13 14 15 16 17 18 19 20 21 22 23 24 25 26 27 28 29 30 31 32 33 34 35 36 37 38 39 40 41 42 43 44 45 46 47 48 49 50

000
ASUS43 KTOP 190759
RWRKS

WEATHER ROUNDUP FOR KANSAS
NATIONAL WEATHER SERVICE GOODLAND KS
300 AM CDT FRI SEP 19 2014

NOTE:  "FAIR" INDICATES FEW OR NO CLOUDS BELOW 12,000 FEET WITH NO
SIGNIFICANT WEATHER AND/OR OBSTRUCTIONS TO VISIBILITY.

KSZ001>006-013>018-027>032-041>047-190900-
NORTHWEST KANSAS

CITY           SKY/WX    TMP DP  RH WIND       PRES   REMARKS
GOODLAND       CLEAR     65  58  78 S15       29.94S
HAYS           CLEAR     66  57  72 S14       29.93F
HILL CITY      CLEAR     68  62  81 S6        29.91F
RUSSELL        CLEAR     65  60  84 S15       29.92F
$$

KSZ061>065-074>080-084>089-190900-
SOUTHWEST KANSAS

CITY           SKY/WX    TMP DP  RH WIND       PRES   REMARKS
DODGE CITY     CLEAR     65  59  81 SW9       29.97F
ELKHART          N/A     61  56  84 S8          N/A
GARDEN CITY    CLEAR     61  58  90 SW7       29.97S
GREAT BEND     CLEAR     66  59  77 S13       29.96S
LIBERAL        CLEAR     63  55  77 SW8       30.01F
$$

KSZ066>073-081>083-090>101-190900-
SOUTHEAST KANSAS

CITY           SKY/WX    TMP DP  RH WIND       PRES   REMARKS
CHANUTE        CLEAR     64  63  96 SE8       29.99F
COFFEYVILLE    CLEAR     64  62  93 E5        29.99S
HUTCHINSON     CLEAR     65  61  87 S6        29.97S
NEWTON         CLEAR     63  57  82 SE7       30.00S
PARSONS        CLEAR     65  63  93 VRB5      30.00F
WICHITA INTL   CLEAR     66  62  87 S6        29.96F
WICHITA JABRA  CLEAR     65  62  90 SE8       29.97F
WINFIELD       CLEAR     66  64  93 SE6       29.98F
$$

KSZ007>012-019>026-033>040-048>060-102>105-190900-
NORTHEAST KANSAS

CITY           SKY/WX    TMP DP  RH WIND       PRES   REMARKS
CONCORDIA      PTCLDY    65  64  97 SE12      29.95F
EMPORIA        CLEAR     64  63  96 SE8       29.98F
LAWRENCE       CLEAR     59  58  96 E6        30.00F FOG
MANHATTAN      CLEAR     63  62  97 E3        29.97F
OLATHE IND     CLEAR     60  60 100 SE6       30.01F
OLATHE EXE     CLOUDY    61  60  97 SE8       30.01S FOG
SALINA         CLEAR     66  62  87 SE8       29.96S
TOPEKA BILLARD CLEAR     63  62  97 E6        29.99F
TOPEKA FORBES  CLEAR     63  61  93 SE7       29.99F
$$


USA.gov is the U.S. government's official web portal to all federal, state and local government web resources and services.